Grand Junction, CO

10:27 PM MDT on June 25, 2017 (GMT -0600)
Walker

Weather History for KGJT - July, 2013

Change the Weather History Date:

Monday, July 15, 2013

  Actual Average Record
Temperature  
Mean Temperature 83 °F 79 °F  
Max Temperature 97 °F 94 °F 105 °F (1925)
Min Temperature 69 °F 64 °F 56 °F (1948)
Degree Days  
Heating Degree Days 0 0  
Month to date heating degree days 0 0  
Since 1 June heating degree days 5 22  
Since 1 July heating degree days 0 0  
Cooling Degree Days 18 14  
Month to date cooling degree days 241 194  
Year to date cooling degree days 610 476  
Since 1 June cooling degree days 555 425  
Growing Degree Days 33 (Base 50)    
Moisture  
Dew Point 52 °F    
Average Humidity 41    
Maximum Humidity 66    
Minimum Humidity 15    
Precipitation  
Precipitation 0.20 in 0.02 in 0.51 in (1921)
Month to date precipitation 0.34 0.25  
Year to date precipitation 3.76 4.54  
Snow  
Snow 0.00 in 0.00 in 0.00 in (2015)
Month to date snowfall 0.0 0.0  
Since 1 June snowfall 0.0 0.0  
Since 1 July snowfall 0.0 0.0  
Snow Depth 0.00 in    
Sea Level Pressure  
Sea Level Pressure 29.82 in    
Wind  
Wind Speed 12 mph (SE)    
Max Wind Speed 43 mph    
Max Gust Speed 54 mph    
Visibility 10 miles    
Events Rain , Thunderstorm    
T = Trace of Precipitation, MM = Missing Value Source: NWS Daily Summary

Daily Weather History Graph

Daily Weather History Graph

Search for Another Location

Airport or City:

Trip Planner

Search our weather history database for the weather conditions in past years. The results will help you decide how hot, cold, wet, or windy it might be!

Date:

Astronomy

Jul. 15, 2013 Rise Set
Actual Time 6:00 AM MDT 8:39 PM MDT
Civil Twilight 5:29 AM MDT 9:10 PM MDT
Nautical Twilight 4:50 AM MDT 9:49 PM MDT
Astronomical Twilight 4:06 AM MDT 10:32 PM MDT
Moon 1:19 PM MDT (7/15) No Moon Set
Length of Visible Light 15h 40m
Length of Day
14h 38m
Waxing Crescent, 46% of the Moon is Illuminated
Jul 15
Waxing Crescent
Jul 15
First Quarter
Jul 22
Full
Jul 29
Last Quarter
Aug 6
New

Hourly Weather History & Observations

Time (MDT) Temp. Dew Point Humidity Pressure Visibility Wind Dir Wind Speed Gust Speed Precip Events Conditions
12:53 AM 77.0 °F 51.1 °F 40% 29.82 in 10.0 mi ESE 15.0 mph - N/A   Clear
1:53 AM 75.0 °F 51.1 °F 43% 29.83 in 10.0 mi East 11.5 mph - N/A   Clear
2:53 AM 72.0 °F 51.1 °F 48% 29.84 in 10.0 mi SE 8.1 mph - N/A   Clear
3:53 AM 71.1 °F 50.0 °F 47% 29.83 in 10.0 mi ESE 10.4 mph - N/A   Clear
4:53 AM 70.0 °F 50.0 °F 49% 29.83 in 10.0 mi East 9.2 mph - N/A   Clear
5:53 AM 70.0 °F 50.0 °F 49% 29.83 in 10.0 mi East 10.4 mph - N/A   Clear
6:53 AM 73.0 °F 50.0 °F 44% 29.84 in 10.0 mi East 11.5 mph - N/A   Clear
7:53 AM 77.0 °F 51.1 °F 40% 29.86 in 10.0 mi ESE 10.4 mph - N/A   Clear
8:53 AM 78.1 °F 50.0 °F 37% 29.86 in 10.0 mi ESE 15.0 mph - N/A   Clear
9:53 AM 81.0 °F 50.0 °F 34% 29.86 in 10.0 mi SE 9.2 mph - N/A   Clear
10:53 AM 84.0 °F 48.9 °F 29% 29.84 in 10.0 mi SE 9.2 mph - N/A   Clear
11:53 AM 87.1 °F 48.9 °F 27% 29.81 in 10.0 mi SSE 9.2 mph - N/A   Clear
12:53 PM 91.0 °F 46.9 °F 22% 29.77 in 10.0 mi South 9.2 mph - N/A   Clear
1:53 PM 93.0 °F 46.9 °F 20% 29.74 in 10.0 mi WSW 6.9 mph - N/A   Scattered Clouds
2:53 PM 95.0 °F 46.9 °F 19% 29.70 in 10.0 mi West 6.9 mph - N/A   Scattered Clouds
3:53 PM 96.1 °F 48.0 °F 19% 29.68 in 10.0 mi WSW 10.4 mph 17.3 mph N/A   Scattered Clouds
4:53 PM 96.1 °F 44.1 °F 17% 29.65 in 10.0 mi WNW 9.2 mph 17.3 mph N/A   Scattered Clouds
5:53 PM 95.0 °F 45.0 °F 18% 29.64 in 10.0 mi West 16.1 mph - N/A   Scattered Clouds
6:53 PM 95.0 °F 41.0 °F 15% 29.62 in 10.0 mi NE 8.1 mph - N/A   Scattered Clouds
7:53 PM 87.1 °F 50.0 °F 28% 29.68 in 10.0 mi SSE 31.1 mph 43.7 mph N/A   Mostly Cloudy
8:38 PM 73.4 °F 59.0 °F 61% 29.98 in 5.0 mi SSE 38.0 mph 49.5 mph 0.20 in Rain , Thunderstorm Thunderstorms and Rain
8:53 PM 73.9 °F 59.0 °F 59% 29.77 in 10.0 mi SSE 31.1 mph 41.4 mph 0.20 in   Mostly Cloudy
9:30 PM 73.4 °F 57.2 °F 57% 30.00 in 10.0 mi SSE 20.7 mph 31.1 mph 0.00 in   Mostly Cloudy
9:50 PM 71.6 °F 59.0 °F 64% 30.02 in 10.0 mi East 6.9 mph - 0.00 in Thunderstorm Mostly Cloudy
9:53 PM 72.0 °F 59.0 °F 64% 29.81 in 10.0 mi East 4.6 mph - 0.00 in Thunderstorm Mostly Cloudy
10:09 PM 71.6 °F 60.8 °F 69% 30.05 in 10.0 mi East 9.2 mph - N/A   Mostly Cloudy
10:25 PM 71.6 °F 60.8 °F 69% 30.04 in 10.0 mi East 13.8 mph - N/A Thunderstorm Scattered Clouds
10:40 PM 71.6 °F 60.8 °F 69% 30.05 in 10.0 mi SSE 6.9 mph - N/A   Partly Cloudy
10:53 PM 72.0 °F 61.0 °F 68% 29.84 in 10.0 mi ESE 4.6 mph - N/A   Mostly Cloudy
11:53 PM 72.0 °F 59.0 °F 64% 29.83 in 10.0 mi SE 16.1 mph - N/A   Scattered Clouds